Weather in Staryye Maklaushi

Russia / Ulyanovsk Oblast     54°27′28″N   47°27′27″E
temp.,
°C
wind,
m/s
gust,
m/s
humid.,
%
clouds,
%
prec.,
mm/h
press.,
hPa
HPBL,
m
16 may, sun
sun1601:00+19s4155470 0.0 1016269
04:00+18s5155164 0.0 1016256
07:00+19s5155676 0.0 1016311
10:00+24ssw6124326 0.0 1016507
13:00+26ssw7936100 0.0 1016996
16:00+27ssw69385 0.0 10161987
19:00+24sw385486 0.0 1016213
22:00+20ssw225678 0.0 101612
17 may, mon
mon1701:00+18ssw2260100 0.0 101613
04:00+17s2263100 0.0 101711
07:00+20sw006130 0.0 101745
10:00+25s234710 0.0 1018401
13:00+28ssw344173 0.0 1018755
16:00+29ssw343683 0.0 10171487
19:00+26sse355074 0.0 1017127
22:00+19ne4767100 1.6 101882
18 may, tue
tue1801:00+17se3369100 0.0 101832
04:00+17se336458 0.0 101824
07:00+19ese346345 0.0 1018109
10:00+25se46416 0.0 1018450
13:00+28se44275 0.0 10181339
16:00+29ese44265 0.0 10172401
19:00+24ese474740 0.0 1017139
22:00+19e411535 0.0 1017160
19 may, wed
wed1901:00+18ese411786 0.0 1017194
04:00+16ese412785 0.0 1017217
07:00+18ese511775 0.0 1017275
10:00+23ese710615 0.0 1016554
13:00+25ese89505 0.0 10161027
16:00+26ese79480 0.0 10151239
19:00+24ese6125645 0.0 1013498
22:00+20se4116613 0.0 1013290
20 may, thu
thu2001:00+17se3108194 0.7 1013195
04:00+17se61283100 0.9 1013404
07:00+17sse51087100 0.0 1014481
10:00+19s6106765 0.1 10141090
13:00+20sse7105399 0.1 10141941
16:00+21ssw7104314 0.1 10142259
19:00+18sw6116114 0.0 10141006
22:00+15ssw5116934 0.0 1016607